Wind_Speed
23 24 29 30 33 40 40 37 34 36 32 30 26 25 31 21 29 24 26 36 30 22 23 19 21 18 17 17 17 14 15 13
25 29 28 32 31 38 41 38 38 37 35 34 30 30 26 29 27 30 28 28 32 28 24 22 21 22 19 18 16 16 17 9
20 24 29 29 32 39 40 41 41 38 36 36 31 31 28 28 26 28 30 33 33 31 29 21 23 22 20 20 20 15 10 10
19 19 25 29 29 36 41 42 42 42 38 31 30 27 25 27 30 31 33 34 33 32 31 27 24 25 22 20 20 15 13 6
18 16 12 27 31 35 40 41 42 42 39 34 38 33 31 32 32 30 32 32 32 31 31 33 22 27 22 16 16 16 13 11
18 14 17 21 33 32 34 40 41 42 43 40 38 32 32 30 30 31 31 31 32 31 31 31 24 23 20 20 20 17 15 16
18 16 26 28 35 38 38 35 39 42 45 43 39 38 32 30 33 33 32 33 33 33 32 30 29 28 25 22 18 16 15 13
26 27 24 23 26 39 39 39 39 42 44 45 40 40 35 34 37 34 34 33 33 35 36 37 34 29 22 18 18 17 14 14
22 25 27 23 32 34 39 42 41 42 42 44 46 40 39 31 38 35 37 35 33 33 40 36 31 25 26 25 20 20 18 17
13 16 14 15 25 26 41 38 43 45 45 44 44 41 39 34 37 38 36 34 36 38 37 33 30 31 28 26 25 21 18 16
12 11 7 18 21 19 38 36 38 39 40 41 41 43 39 36 40 37 37 37 40 39 35 35 36 32 31 27 25 22 20 16
7 8 7 8 16 20 31 32 31 30 32 38 39 40 36 36 42 38 41 39 40 41 41 37 36 33 30 28 26 24 21 19
7 6 6 4 5 16 31 31 31 32 33 36 37 37 34 40 36 39 38 41 42 42 39 37 35 34 32 29 27 25 23 22
4 6 7 6 3 7 19 24 23 25 29 32 33 31 36 36 36 38 42 41 38 38 38 36 34 34 31 29 27 25 22 20
4 8 6 3 3 5 13 17 21 20 23 27 29 32 35 36 39 39 40 40 37 37 36 34 34 34 33 30 28 26 24 21
4 4 3 3 5 6 11 11 12 17 23 26 28 30 32 34 36 36 35 36 36 34 35 33 33 33 32 30 30 29 27 25
5 1 9 6 5 8 12 13 16 19 20 22 29 32 31 34 34 35 36 33 34 35 35 35 34 28 31 32 32 30 27 27
6 5 5 7 9 12 15 17 19 17 20 22 27 31 31 34 35 34 35 35 34 34 33 33 31 31 32 31 30 29 29 29
6 6 6 5 12 15 15 22 20 18 17 21 26 29 32 34 36 36 34 35 35 34 33 31 33 34 34 33 32 32 30 29
Wind_Direction
217 206 194 192 177 173 176 183 190 187 188 196 198 201 195 193 202 201 214 209 199 208 203 212 207 214 215 221 221 227 227 231
215 205 207 188 179 172 174 178 187 184 188 191 195 195 189 200 193 197 204 203 198 206 203 211 206 209 221 219 216 216 225 237
219 204 200 189 179 174 174 180 182 188 191 194 195 192 194 195 201 201 202 201 196 201 201 208 203 208 220 220 214 216 216 239
217 210 191 189 179 175 177 179 183 188 194 193 196 191 192 194 202 202 199 194 193 197 202 203 206 207 216 215 211 218 222 190
208 216 194 188 190 180 181 183 183 188 187 191 194 193 193 195 194 193 192 193 191 197 203 204 210 207 212 215 218 223 217 190
215 220 205 196 189 192 188 188 188 189 188 193 194 199 201 191 189 187 190 192 193 197 198 202 202 199 203 208 208 197 206 182
224 217 213 214 188 193 193 195 194 193 191 194 196 200 195 188 185 184 185 189 192 196 196 197 201 197 198 196 200 208 198 187
216 213 218 214 199 188 193 196 197 197 192 196 200 200 201 191 185 181 181 183 188 193 194 196 194 197 199 193 172 164 173 183
210 214 214 215 218 189 192 195 198 198 194 195 200 201 201 199 185 183 183 182 181 183 190 192 198 198 179 163 166 165 169 168
219 217 215 205 205 197 190 195 198 198 196 194 199 199 198 201 186 184 175 173 176 189 196 194 183 170 164 165 162 164 168 165
225 222 235 221 202 194 182 192 196 200 197 196 197 199 198 196 179 173 172 174 181 188 183 175 166 164 163 167 164 163 160 163
221 209 195 236 197 188 174 183 191 196 204 194 194 196 194 185 178 174 176 175 178 173 169 163 163 164 164 168 165 160 158 152
169 196 202 128 165 174 173 182 186 193 198 193 188 190 186 175 171 174 172 168 170 165 162 163 165 165 164 164 157 157 158 155
162 123 97 112 168 197 161 171 182 190 200 191 182 171 164 166 164 167 166 163 163 161 161 161 161 162 162 161 157 157 157 154
64 102 113 159 191 192 147 139 165 154 154 149 153 157 162 161 162 163 163 163 161 160 158 161 161 159 161 158 156 153 152 150
116 111 115 174 162 208 130 118 136 153 151 152 156 159 157 153 156 159 159 160 157 157 155 160 156 157 158 156 157 155 152 154
156 164 156 187 181 200 159 155 160 168 163 159 156 157 159 155 154 156 156 155 155 156 156 155 157 156 161 163 163 159 164 159
181 163 136 158 173 202 167 165 167 171 166 164 162 160 159 158 157 155 156 156 155 156 154 155 158 159 165 161 162 162 156 160
316 174 162 171 181 188 179 156 165 171 168 167 168 166 163 162 160 160 158 158 158 156 154 161 159 159 166 162 166 164 161 166
Height
682 686 692 700 707 715 724 734 742 748 755 762 766 770 773 776 781 784 788 793 798 803 806 809 812 815 817 820 821 823 825 826
675 680 686 692 699 709 716 726 734 741 747 752 757 760 767 773 776 780 783 787 793 797 801 805 808 812 814 816 818 820 822 823
667 671 678 684 689 697 708 715 725 733 740 744 750 755 761 768 773 776 779 781 787 791 796 800 804 809 811 813 815 817 819 821
660 663 668 675 682 690 698 706 715 724 732 742 748 753 759 763 766 769 772 775 780 786 791 796 800 804 807 809 812 815 818 820
650 656 661 667 673 680 689 699 707 716 725 733 738 738 741 745 754 761 767 771 776 781 786 791 796 800 802 805 809 812 815 816
644 648 654 660 668 675 681 690 699 707 715 720 727 733 737 741 748 754 761 767 772 776 781 786 791 794 798 800 803 806 809 813
636 641 647 652 659 667 674 683 691 698 705 712 717 723 727 734 740 746 753 760 766 771 776 781 783 786 792 796 799 803 805 808
624 629 635 640 647 655 663 670 678 688 696 703 708 714 720 723 730 736 744 751 758 763 768 771 775 781 787 792 796 800 804 807
611 616 622 628 635 644 652 658 666 675 685 692 699 705 712 716 722 728 734 740 749 755 760 766 772 778 783 788 795 798 800 804
602 605 611 617 624 631 641 648 654 662 671 682 690 696 702 708 715 720 727 735 741 750 757 763 769 776 782 786 789 794 798 803
598 601 606 610 615 623 631 641 648 656 664 673 682 688 694 703 709 715 721 729 736 745 754 761 768 772 777 784 788 792 796 801
593 596 600 609 610 616 625 635 643 651 658 665 674 683 690 696 702 709 715 724 732 740 748 757 762 767 774 781 785 790 794 801
590 596 601 605 608 614 622 630 638 644 651 657 665 677 683 690 697 705 712 719 729 736 743 751 759 765 771 778 783 788 793 798
591 596 602 607 611 616 620 629 636 640 646 652 662 670 677 685 693 703 710 717 726 734 740 748 756 762 769 775 779 786 792 796
597 603 609 614 615 618 624 629 634 639 644 651 659 667 675 681 690 699 707 714 723 730 736 748 754 759 766 772 776 784 790 795
604 608 613 617 620 624 628 635 640 644 647 652 659 668 675 681 690 699 706 714 721 730 736 748 752 757 762 767 775 780 785 794
608 609 613 620 624 628 633 637 642 648 651 655 659 667 675 682 690 697 705 714 721 727 735 743 749 754 759 764 770 775 783 789
612 611 611 619 624 629 634 641 644 648 652 657 661 666 673 680 688 696 703 712 720 727 734 742 745 752 759 763 769 775 780 786
610 613 613 616 621 626 630 637 645 650 654 657 661 667 672 679 686 693 702 710 719 725 732 739 743 751 757 763 768 773 779 785